This is the latest recevied weather packets stored in our database for station/object N0NB. If no packets are shown the sender has not sent any weather packets the latest 1 day(s).
| Time | Temp. | Humidity | Pressure | Rain* | Wind** | Luminosity | Snow |
|---|---|---|---|---|---|---|---|
| 1778025016 | 13.33° C | 44% | 1010.6 hPa | 0 mm | 1.79 m/s, 23° | 78 W/m² | - |
| 1778024416 | 13.33° C | 44% | 1010.4 hPa | 0 mm | 1.79 m/s, 45° | 113 W/m² | - |
| 1778023816 | 13.33° C | 43% | 1010.4 hPa | 0 mm | 1.34 m/s, 45° | 126 W/m² | - |
| 1778023216 | 13.33° C | 44% | 1010.6 hPa | 0 mm | 0.89 m/s, 45° | 124 W/m² | - |
| 1778022616 | 13.89° C | 43% | 1010.7 hPa | 0 mm | 1.34 m/s, 338° | 167 W/m² | - |
| 1778022016 | 13.89° C | 45% | 1010.5 hPa | 0 mm | 1.34 m/s, 338° | 202 W/m² | - |
| 1778021416 | 13.33° C | 43% | 1010.7 hPa | 0 mm | 1.79 m/s, 338° | 175 W/m² | - |
| 1778020816 | 13.33° C | 45% | 1010.7 hPa | 0 mm | 1.34 m/s, 0° | 149 W/m² | - |
| 1778020216 | 13.33° C | 45% | 1010.7 hPa | 0 mm | 2.68 m/s, 338° | 149 W/m² | - |
| 1778019616 | 13.33° C | 46% | 1010.6 hPa | 0 mm | 2.24 m/s, 338° | 148 W/m² | - |
| 1778019016 | 13.33° C | 48% | 1010.7 hPa | 0 mm | 1.79 m/s, 315° | 144 W/m² | - |
| 1778018416 | 13.33° C | 49% | 1010.7 hPa | 0 mm | 1.79 m/s, 338° | 174 W/m² | - |
| 1778017816 | 13.33° C | 50% | 1010.7 hPa | 0 mm | 1.79 m/s, 315° | 162 W/m² | - |
| 1778017216 | 13.33° C | 48% | 1010.8 hPa | 0 mm | 0.45 m/s, 315° | 168 W/m² | - |
| 1778016616 | 13.33° C | 49% | 1011 hPa | 0 mm | 1.34 m/s, 338° | 203 W/m² | - |
| 1778016016 | 13.33° C | 47% | 1011.1 hPa | 0 mm | 0.89 m/s, 315° | 198 W/m² | - |
| 1778015416 | 13.33° C | 46% | 1011.1 hPa | 0 mm | 1.79 m/s, 315° | 244 W/m² | - |
| 1778014816 | 12.78° C | 47% | 1011.2 hPa | 0 mm | 1.34 m/s, 338° | 223 W/m² | - |
| 1778014216 | 12.78° C | 48% | 1011.1 hPa | 0 mm | 0.45 m/s, 23° | 224 W/m² | - |
| 1778013616 | 12.78° C | 47% | 1011.3 hPa | 0 mm | 0.89 m/s, 338° | 192 W/m² | - |
| 1778013016 | 12.78° C | 48% | 1011.4 hPa | 0 mm | 0.89 m/s, 45° | 196 W/m² | - |
| 1778012416 | 12.78° C | 47% | 1011.5 hPa | 0 mm | 1.34 m/s, 0° | 250 W/m² | - |
| 1778011816 | 12.78° C | 48% | 1011.6 hPa | 0 mm | 1.34 m/s, 338° | 287 W/m² | - |
| 1778011216 | 12.22° C | 49% | 1011.6 hPa | 0 mm | 1.79 m/s, 338° | 229 W/m² | - |
| 1778010616 | 12.22° C | 50% | 1011.7 hPa | 0 mm | 1.34 m/s, 45° | 247 W/m² | - |
* Rain latest hour (hover to see other rain measurements)
** Current wind speed in m/s (hover to see current wind gust speed)